SCP
0 0 0 0 0 0 0 0 0 0 0 0 0 0 0 0 0 0 0 0 0 0 0 0 0 0 0 0 0 0 0 0 0 0 0 0 0 0 0 0 0 0 0
0 0 0 0 0 0 0 0 0 0 0 0 0 0 0 0 0 0 0 0 0 0 0 0 0 0 0 0 0 0 0 0 0 0 0 0 0 0 0 0 0 0 0
0 0 0 0 0 0 0 0 0 0 0 0 0 0 0 0 0 0 0 0 0 0 0 0 0 0 0 0 0 0 0 0 0 0 0 0 0 0 0 0 0 0 0
0 0 0 0 0 0 0 0 0 0 0 0 0 0 0 0 0 0 0 0 0 0 0 0 0 0 0 0 0 0 0 0 0 0 0 0 0 0 0 0 0 0 0
0 0 0 0 0 0 0 0 0 0 0 0 0 0 0 0 0 0 0 0 0 0 0 0 0 0 0 0 0 0 0 0 0 0 0 0 0 0 0 0 0 0 0
0 0 0 0 0 0 0 0 0 0 0 0 0 0 0 0 0 0 0 0 0 0 0 0 0 0 0 0 0 0 0 0 0 0 0 0 0 0 0 0 0 0 0
0 0 0 0 0 0 0 0 0 0 0 0 0 0 0 0 0 0 0 0 0 0 0 0 0 0 0 0 0 0 0 0 0 0 0 0 0 0 0 0 0 0 0
0 0 0 0 0 0 0 0 0 0 0 0 0 0 0 0 0 0 0 0 0 0 0 0 0 0 0 0 0 0 0 0 0 0 0 0 0 0 0 0 0 0 0
0 0 0 0 0 0 0 0 0 0 0 0 0 0 0 0 0 0 0 0 0 0 0 0 0 0 0 0 0 0 0 0 0 0 0 0 0 0 0 0 0 0 0
0 0 0 0 0 0 0 0 0 0 0 0 0 0 0 0 0 0 0 0 0 0 0 0 0 0 0 0 0 0 0 0 0 0 0 0 0 0 0 0 0 0 0
0 0 0 0 0 0 0 0 0 0 0 0 0 0 0 0 0 0 0 0 0 0 0 0 0 0 0 0 0 0 0 0 0 0 0 0 0 0 0 0 0 0 0
0 0 0 0 0 0 0 0 0 0 0 0 0 0 0 0 0 0 0 0 0 0 0 0 0 0 0 0 0 0 0 0 0 0 0 0 0 0 0 0 0 0 0
0 0 0 0 0 0 0 0 0 0 0 0 0 0 0 0 0 0 0 0 0 0 0 0 0 0 0 0 0 0 0 0 0 0 0 0 0 0 0 0 0 0 0
0 0 0 0 0 0 0 0 0 0 0 0 0 0 0 0 0 0 0 0 0 0 0 0 0 0 0 0 0 0 0 0 0 0 0 0 0 0 0 0 0 0 0
0 0 0 0 0 0 0 0 0 0 0 0 0 0 0 0 0 0 0 0 0 0 0 0 0 0 0 0 0 0 0 0 0 0 0 0 0 0 0 0 0 0 0
0 0 0 0 0 0 0 0 0 0 0 0 0 0 0 0 0 0 0 0 0 0 0 0 0 0 0 0 0 0 0 0 0 0 0 0 0 0 0 0 0 0 0
0 0 0 0 0 0 0 0 0 0 0 0 0 0 0 0 0 0 0 0 0 0 0 0 0 0 0 0 0 0 0 0 0 0 0 0 0 0 0 0 0 0 0
0 0 0 0 0 0 0 0 0 0 0 0 0 0 0 0 0 0 0 0 0 0 0 0 0 0 0 0 0 0 0 0 0 0 0 0 0 0 0 0 0 0 0
0 0 0 0 0 0 0 0 0 0 0 0 0 0 0 0 0 0 0 0 0 0 0 0 0 0 0 0 0 0 0 0 0 0 0 0 0 0 0 0 0 0 0
0 0 0 0 0 0 0 0 0 0 0 0 0 0 0 0 0 0 0 0 0 0 0 0 0 0 0 0 0 0 0 0 0 0 0 0 0 0 0 0 0 0 0
0 0 0 0 0 0 0 0 0 0 0 0 0 0 0 0 0 0 0 0 0 0 0 0 0 0 0 0 0 0 0 0 0 0 0 0 0 0 0 0 0 0 0
0 0 0 0 0 0 0 0 0 0 0 0 0 0 0 0 0 0 0 0 0 0 0 0 0 0 0 0 0 0 0 0 0 0 0 0 0 0 0 0 0 0 0
0 0 0 0 0 0 0 0 0 0 0 0 0 0 0 0 0 0 0 0 0 0 0 0 0 0 0 0 0 0 0 0 0 0 0 0 0 0 0 0 0 0 0
0 0 0 0 0 0 0 0 0 0 0 0 0 0 0 0 0 0 0 0 0 0 0 0 0 0 0 0 0 0 0 0 0 0 0 0 0 0 0 0 0 0 0
0 0 0 0 0 0 0 0 0 0 0 0 0 0 0 0 0 0 0 0 0 0 0 0 0 0 0 0 0 0 0 0 0 0 0 0 0 0 0 0 0 0 0
0 0 0 0 0 0 0 0 0 0 0 0 0 0 0 0 0 0 0 0 0 0 0 0 0 0 0 0 0 0 0 0 0 0 0 0 0 0 0 0 0 0 0
Wind_Speed
8 7 7 7 6 6 6 6 6 5 6 7 6 6 5 5 5 5 5 5 6 6 6 6 7 7 5 5 5 5 6 6 13 11 5 5 7 8 9 8 8 8 10
7 7 7 6 6 6 6 6 6 6 6 6 6 6 6 6 6 6 6 6 6 7 7 7 8 6 7 6 6 7 7 7 10 15 8 6 7 8 8 9 9 9 8
6 6 6 6 6 6 6 6 6 6 6 5 6 6 6 6 6 6 6 6 7 7 7 7 8 7 8 7 7 7 7 8 7 10 11 6 6 7 8 9 10 8 10
6 6 6 6 6 6 5 5 5 5 5 5 6 6 6 6 6 6 6 6 7 7 7 7 8 8 9 9 9 9 8 8 8 9 10 8 7 7 7 7 9 6 8
5 5 5 5 4 4 4 5 4 5 5 5 5 5 5 5 6 6 6 7 7 8 8 8 9 12 16 14 11 9 8 8 8 9 10 9 8 6 6 6 10 8 8
4 4 4 4 4 4 4 4 4 4 4 5 6 6 6 6 9 12 10 7 7 8 9 9 10 12 16 22 24 22 18 12 9 9 9 10 10 8 7 8 9 10 9
4 4 4 4 4 4 4 4 4 5 5 5 6 6 6 8 12 14 14 9 7 7 8 8 9 10 16 10 16 22 20 23 22 14 12 12 11 9 9 10 9 10 11
3 3 4 4 4 4 4 4 4 4 4 5 5 6 6 8 12 14 15 10 8 8 9 9 9 9 10 13 11 10 10 11 14 12 10 11 11 10 10 12 12 11 9
4 3 3 4 4 4 4 4 4 4 4 5 5 5 6 7 12 14 14 6 7 9 9 9 10 9 17 23 14 11 11 10 16 22 23 21 24 24 18 9 7 8 10
3 3 2 3 3 4 4 4 3 4 4 4 5 5 6 7 11 15 15 6 7 7 7 8 14 16 20 23 13 10 12 11 10 12 14 16 14 14 20 11 6 8 9
2 2 2 2 3 3 3 3 3 3 4 4 5 5 6 8 11 14 15 7 6 7 6 6 7 19 23 24 21 12 16 17 10 9 9 8 7 7 7 7 6 6 8
2 2 2 2 2 2 2 3 3 3 4 5 5 6 5 6 8 12 17 17 15 9 7 6 8 20 23 25 19 19 25 22 8 7 7 6 6 5 5 6 6 6 7
2 1 1 2 2 2 3 3 3 3 4 4 4 5 5 4 7 15 18 19 20 12 9 16 21 24 23 16 19 25 20 9 6 7 7 6 5 5 5 4 5 6 7
2 2 2 2 2 2 2 3 3 3 4 4 5 6 6 5 5 5 6 8 13 12 10 14 22 22 18 17 17 13 7 7 7 6 6 5 4 4 4 4 4 4 5
1 2 2 2 2 3 3 3 4 4 5 6 5 5 6 7 9 16 12 7 6 8 11 7 6 7 6 7 7 7 6 5 6 4 4 4 4 4 5 4 4 4 4
1 1 2 2 2 3 3 4 6 9 13 14 14 13 11 15 20 21 22 22 23 22 15 7 7 7 8 7 7 6 5 5 4 4 4 4 4 5 5 4 4 4 5
2 2 2 2 3 3 3 4 6 7 11 14 16 18 18 20 22 22 22 22 22 20 10 7 7 7 7 7 6 6 6 5 4 4 4 4 4 5 5 5 5 5 5
2 3 3 3 3 3 4 4 5 6 7 6 10 16 19 20 21 21 21 18 10 9 6 7 7 7 6 6 6 6 5 5 4 4 4 4 4 5 5 5 5 5 5
2 2 3 3 3 4 4 5 5 7 7 8 6 8 15 17 18 19 18 8 7 7 6 7 7 7 6 6 6 6 5 5 5 4 4 4 4 5 5 5 5 9 7
2 6 6 4 4 4 5 5 6 6 7 7 8 7 6 8 7 8 7 6 7 7 7 7 6 6 6 6 6 5 5 5 5 5 5 5 4 5 6 6 6 5 5
2 4 8 6 4 5 5 6 6 7 7 8 8 10 17 9 7 8 7 6 6 7 7 7 7 7 6 5 5 6 7 6 5 5 5 5 5 5 5 5 5 5 5
2 3 4 5 5 5 6 6 6 7 8 9 8 10 18 10 7 7 7 7 6 6 6 6 6 6 5 5 6 6 6 6 6 5 5 5 5 5 5 5 5 5 5
3 4 5 5 6 9 9 6 6 7 8 8 9 8 8 7 7 8 8 7 7 6 6 6 7 7 6 6 6 6 7 7 6 6 6 5 5 5 5 6 6 6 5
4 5 6 6 6 6 7 7 7 8 8 8 8 8 8 8 8 9 9 8 7 7 7 6 7 9 11 9 7 6 7 8 7 6 8 7 7 6 6 6 6 7 6
4 5 6 6 6 7 7 8 8 8 9 9 9 9 9 9 9 9 9 8 9 9 9 8 7 8 11 12 11 9 14 19 17 10 7 7 8 8 7 8 7 7 7
5 6 6 6 6 6 7 8 8 9 9 9 9 9 9 10 10 10 9 9 9 9 9 8 10 11 12 11 13 16 20 21 20 19 11 7 8 8 8 7 9 8 8
Wind_Direction
196 194 192 191 185 180 181 185 182 179 174 179 185 191 198 206 210 215 224 230 236 244 245 247 251 252 253 251 248 248 249 254 274 282 265 272 276 281 288 283 284 282 284
191 192 192 188 182 184 187 187 181 181 181 184 186 195 205 211 214 219 230 234 238 245 249 251 256 260 258 254 252 252 253 252 266 282 283 276 272 277 278 277 285 285 281
183 186 187 185 185 189 190 186 182 181 184 188 191 202 211 216 221 225 230 237 240 244 247 251 257 260 263 260 258 258 258 262 260 274 282 277 275 277 282 282 280 280 282
178 182 189 190 188 189 186 183 183 182 189 198 203 209 215 221 227 232 236 242 247 249 251 254 257 257 261 262 263 260 261 263 262 269 277 280 276 272 275 282 285 272 277
177 185 190 184 179 179 182 183 184 189 198 203 210 217 220 224 231 235 238 244 249 255 257 258 260 264 266 269 271 264 259 261 264 268 274 279 277 277 272 273 283 284 276
175 183 178 176 179 183 186 186 190 198 203 208 216 220 225 235 248 252 255 249 249 253 260 262 266 271 273 277 279 279 275 270 269 268 274 275 276 272 274 275 281 286 285
173 177 176 177 183 186 185 188 200 207 212 220 224 225 232 240 251 259 263 264 254 255 259 264 272 274 281 274 278 281 281 279 277 275 274 273 275 273 273 274 270 272 278
176 183 182 181 188 188 192 204 213 214 218 226 231 233 240 249 258 265 270 267 259 257 257 260 266 270 272 280 274 271 266 270 274 275 267 268 270 269 262 268 272 275 272
185 189 183 182 190 195 205 215 220 224 233 235 236 240 246 255 262 269 273 263 259 259 259 261 269 270 279 287 286 280 278 274 278 278 276 277 278 282 283 281 278 282 284
186 178 172 181 195 206 215 223 227 229 238 242 247 245 248 254 264 271 274 264 264 266 264 262 272 279 285 289 286 281 281 279 275 276 276 280 281 281 284 279 270 276 284
141 143 170 197 209 217 225 229 234 241 246 250 255 256 254 260 270 273 278 277 266 270 271 268 267 285 289 290 289 282 281 285 277 272 270 266 264 260 261 258 249 252 269
128 154 195 216 221 224 230 242 241 241 251 257 262 266 261 265 274 280 284 285 288 284 280 276 277 290 291 292 292 287 289 292 284 277 273 266 263 262 262 259 254 249 252
135 185 219 230 236 236 234 244 251 248 251 259 261 268 271 266 274 284 288 291 291 289 282 287 292 295 296 294 291 291 292 287 277 275 272 267 259 259 267 271 267 264 266
174 213 224 237 251 251 247 240 245 248 255 263 267 272 277 275 272 274 273 282 288 290 288 288 292 293 292 290 291 290 279 266 270 267 267 265 265 269 270 267 270 274 278
198 221 238 248 255 263 259 250 255 245 251 267 264 263 275 280 277 287 291 285 280 276 291 285 282 285 280 278 277 275 268 269 274 264 268 274 276 277 276 267 261 269 272
204 233 244 256 264 267 276 288 282 278 286 285 285 285 285 286 294 296 297 298 300 300 300 291 289 287 286 286 286 283 275 268 262 262 265 267 277 279 281 278 268 264 270
218 245 255 260 265 269 273 279 290 294 288 288 289 291 291 294 297 299 300 301 302 304 297 286 283 283 283 283 280 278 276 269 261 259 261 267 273 275 276 278 275 268 269
249 267 270 260 263 266 269 273 277 285 292 286 285 289 294 297 300 302 304 307 301 297 276 276 278 278 277 279 279 275 274 270 260 255 256 261 265 270 273 274 272 267 271
259 261 264 265 268 271 274 277 278 280 284 288 289 289 294 300 302 301 304 295 287 283 279 276 275 277 277 276 276 274 272 268 262 256 253 254 257 262 267 270 270 274 276
265 280 288 281 276 278 278 279 280 282 285 287 289 291 295 295 289 290 284 274 276 279 280 279 277 275 276 273 272 271 272 269 262 254 253 253 251 256 263 267 266 266 265
267 282 293 292 278 276 277 277 279 281 283 285 285 290 297 295 289 287 285 279 276 277 277 279 278 277 273 271 271 268 266 266 260 253 251 253 252 255 259 261 261 261 262
273 277 277 277 278 279 282 279 279 280 282 285 288 292 297 295 287 285 284 283 278 274 273 274 277 272 266 264 266 270 270 268 263 255 251 252 253 254 258 258 258 260 258
276 281 284 283 282 287 292 285 282 283 284 284 287 290 291 287 285 285 285 283 280 278 275 273 275 277 272 265 261 259 261 263 260 254 251 252 253 252 253 253 253 257 254
280 282 283 284 285 283 283 284 283 284 286 287 288 289 288 286 286 286 285 284 281 278 274 272 272 274 275 274 270 263 259 259 254 247 242 245 249 249 249 249 249 249 249
283 282 283 283 284 285 286 287 287 288 289 290 290 290 289 288 287 287 286 283 282 281 278 276 274 274 274 273 272 269 271 273 271 261 241 237 240 242 243 243 244 245 244
283 283 284 284 283 285 286 288 289 289 289 290 289 288 288 288 287 287 287 285 284 283 281 278 272 271 271 273 272 273 277 277 273 268 257 240 235 237 235 238 238 238 239